2018-102M (43842 NORAD) Tracking and Keplerian Element Data

This shows tracking and keplerian element data for the satellite.

Feedback or suggestion? Click here.




ElementValue
Catalog43842
Name2018-102M
Epoch Orbit452
Epoch Day6.19078521
Epoch Year2019
RAAN83.3462
Inclination97.5908
Eccentricity0.0009019
Argument of Perigee202.0106
Mean Anonmoly185.1487
Mean Motion15.09321328
Decay Rate9.45E-06
L11 43842U 18102M 19006.19078521 .00000945 00000-0 63194-4 0 9997
L22 43842 97.5908 83.3462 0009019 202.0106 185.1487 15.09321328 4526

Live tracking and technical data element details for 2018-102M (NORAD 43842). 2018-102M can be tracked NOW for your location showing map with azimuth and elevation plus other details from your city location.

Track the satellite on the map from your city or location and see movement details for azimuth, elevation, latitude, longitude, range, height, and movement on the map or in text.







IsCatalogInMostPopularTable: catalog: 43842, numindb: 29
Update: records affected: 1



GetName: 43842 2018-102M

Hit Count: updated at: Thu, 17 Jan 2019 14:40:29 GMT